Regional Weather Roundup
Issued by NWS

Home | Current Version | Previous Version | Graphics & Text | Print | Product List | Glossary On
Versions: 1 2 3 4 5 6 7 8 9 10 11 12 13 14 15 16 17 18 19 20 21 22 23 24 25 26 27 28 29 30 31 32 33 34 35 36 37 38 39 40 41 42 43 44 45 46 47 48 49 50
691
ASUS43 KBIS 281602
RWRND

NORTH DAKOTA REGIONAL WEATHER ROUNDUP
NATIONAL WEATHER SERVICE BISMARCK ND
1100 AM CDT FRI APR 28 2017

NOTE: "FAIR" INDICATES FEW OR NO CLOUDS BELOW 12,000 FEET WITH NO
SIGNIFICANT WEATHER AND/OR OBSTRUCTIONS TO VISIBILITY.


NDZ001>003-009>011-017-281700-
NORTHWEST NORTH DAKOTA

CITY           SKY/WX    TMP DP  RH WIND       PRES   REMARKS
WILLISTON      FAIR      49  27  42 SE6       30.04R
MINOT          FAIR      47  16  29 NW5       30.03R
MINOT AFB      SUNNY     45  18  33 CALM      30.03R
$$

NDZ018>021-031>035-040>046-281700-
SOUTHWEST NORTH DAKOTA

CITY           SKY/WX    TMP DP  RH WIND       PRES   REMARKS
BISMARCK       FAIR      47  16  29 NE7       30.03R
DICKINSON      FAIR      43  23  45 E9        29.98R
GARRISON         N/A     45  20  36 VRB7      30.03R
HETTINGER ARPT SUNNY     43  28  55 E7        29.99R
$$

NDZ004>008-012>016-024-026-027-054-281700-
NORTHEAST NORTH DAKOTA

CITY           SKY/WX    TMP DP  RH WIND       PRES   REMARKS
GRAND FORKS    SUNNY     44  27  51 NW17      29.98R
GRND FRKS AFB  SUNNY     44  22  42 N16       29.98R
DEVILS LAKE    FAIR      44  15  31 N14       30.00R
$$

NDZ022-023-025-028>030-036>039-047>053-281700-
SOUTHEAST NORTH DAKOTA

CITY           SKY/WX    TMP DP  RH WIND       PRES   REMARKS
FARGO          SUNNY     42  30  62 N10       29.99R
JAMESTOWN      FAIR      44  23  43 NW13      29.99R
$$





USA.gov is the U.S. government's official web portal to all federal, state and local government web resources and services.